Home   Weather   Knarrevik/Straume   Past weeks

Flag for Norway Past Weather in Knarrevik/Straume, Norway — Yesterday and Last 2 Weeks

Now
43 °F

Rain showers. Low clouds.


Feels Like: 40 °F
Forecast: 44 / 46 °F
Wind: 5 mph from South

Location: Bergen / Flesland

Current Time: Jan 18, 2017 at 9:14:56 am

Latest Report: Jan 18, 2017 at 8:00 am


Visibility: 2 mi

Pressure: 30.37 "Hg

Humidity: 98%

Dew Point: 42 °F

Location of Knarrevik/StraumeLocation

Past Weather in Knarrevik/Straume — Graph

°F

Knarrevik/Straume Temperature Yesterday

Maximum temperature yesterday: 41 °F (at 10:00 pm)
Minimum temperature yesterday: 32 °F (at 1:00 am)
Average temperature yesterday: 37 °F

High & Low Weather Summary for the Past Weeks

 TemperatureHumidityPressure
High45 °F (Jan 9, 6:00 pm)99% (Jan 9, 12:00 am)30.58 "Hg (Jan 9, 12:00 am)
Low22 °F (Jan 16, 11:00 am)46% (Jan 5, 12:00 pm)28.61 "Hg (Jan 11, 11:00 am)
Average37 °F85%29.76 "Hg
* Reported Jan 3 7:00 am — Jan 18 7:00 am, Knarrevik/Straume, Weather by CustomWeather, © 2017

Note: Actual official high and low records may vary slightly from our data, if they occured in-between our weather recording intervals... More about our weather records

Advertising

Knarrevik/Straume Weather History for the Previous 24 Hours

Scroll right to see more
 ConditionsComfort  
Time TempWeatherWind HumidityBarometerVisibility
7:00 am
Wed, Jan 18
N/ALow clouds.N/AN/AN/A4 mi
6:00 am41 °FLow clouds.2 mph98%30.36 "Hg2 mi
5:00 am42 °FDrizzle. Low clouds.3 mph99%30.38 "Hg2 mi
4:00 am42 °FRain. Low clouds.5 mph99%30.38 "Hg2 mi
3:00 am41 °FRain showers. Low clouds.3 mph98%30.39 "Hg10 mi
2:00 amN/ALow clouds.N/AN/AN/A2 mi
1:00 amN/ALow clouds.N/AN/AN/A1 mi
12:00 am40 °FRain showers. Low clouds.5 mph98%30.42 "Hg2 mi
11:00 pm
Tue, Jan 17
40 °FLow clouds.6 mph98%30.42 "Hg2 mi
10:00 pm41 °FRain showers. Low clouds.5 mph99%30.41 "Hg2 mi
9:00 pm41 °FFog.6 mph97%30.40 "Hg1 mi
8:00 pm41 °FFog.3 mph97%30.39 "Hg1 mi
7:00 pm40 °FFog.5 mph97%30.37 "Hg2 mi
6:00 pm40 °FOvercast.5 mph97%30.37 "Hg2 mi
5:00 pm39 °FLight rain. Low clouds.5 mph97%30.37 "Hg2 mi
4:00 pm39 °FChilly.6 mph96%30.37 "HgN/A
3:00 pm39 °FRain. Low clouds.7 mph97%30.37 "Hg2 mi
2:00 pm39 °FRain. Low clouds.8 mph96%30.37 "Hg2 mi
1:00 pm38 °FLight rain. Low clouds.9 mph97%30.38 "Hg2 mi
12:00 pm38 °FLight rain. Low clouds.9 mph95%30.38 "Hg2 mi
11:00 am37 °FDrizzle. Low clouds.8 mph95%30.38 "Hg2 mi
10:00 am37 °FLight rain. Overcast.9 mph96%30.37 "Hg2 mi
9:00 am36 °FLight rain. Low clouds.8 mph95%30.38 "Hg2 mi
Weather by CustomWeather, © 2017

See weather overviewHow to use our weather pages